Weather History for Houghton, MI

Change the Weather History Date:

Saturday, March 2, 2013

  Actual Average Record
Temperature  
Mean Temperature 10 °F -  
Max Temperature 21 °F 27 °F 44 °F (1993)
Min Temperature 0 °F 13 °F -18 °F (2003)
Degree Days  
Heating Degree Days 54    
Moisture  
Dew Point 6 °F    
Average Humidity 75    
Maximum Humidity 92    
Minimum Humidity 57    
Precipitation  
Precipitation 0.00 in - - ()
Sea Level Pressure  
Sea Level Pressure 30.29 in    
Wind  
Wind Speed 5 mph (North)    
Max Wind Speed 10 mph    
Max Gust Speed -    
Visibility 9 miles    
Events Snow    
Averages and records for this station are not official NWS values.
T = Trace of Precipitation, MM = Missing Value Source: NWS Daily Summary

Daily Weather History Graph

Daily Weather History Graph

Search for Another Location

Airport:

Trip Planner

Search our weather history database for the weather conditions in past years. The results will help you decide how hot, cold, wet, or windy it might be!

Date:

Astronomy

Mar. 02, 2013 Rise Set
Actual Time 7:31 AM EST 6:41 PM EST
Civil Twilight 7:01 AM EST 7:11 PM EST
Nautical Twilight 6:25 AM EST 7:47 PM EST
Astronomical Twilight 5:50 AM EST 8:22 PM EST
Moon No Moon Rise 9:36 AM EST (3/2)
Length of Visible Light 12h 10m
Length of Day
11h 09m
Waning Gibbous, 74% of the Moon is Illuminated
Mar 2
Waning Gibbous
Mar 4
Last Quarter
Mar 11
New
Mar 19
First Quarter
Mar 27
Full

Hourly Weather History & Observations

Time (EST) Temp. Windchill Dew Point Humidity Pressure Visibility Wind Dir Wind Speed Gust Speed Precip Events Conditions
12:53 AM 10.9 °F 1.4 °F 3.9 °F 73% 30.36 in 10.0 mi NNE 5.8 mph - N/A   Clear
1:53 AM 12.9 °F 5.2 °F 5.0 °F 71% 30.35 in 10.0 mi North 4.6 mph - N/A   Clear
2:53 AM 12.0 °F 2.7 °F 5.0 °F 73% 30.35 in 10.0 mi NNE 5.8 mph - N/A   Scattered Clouds
3:05 AM 12.2 °F 4.3 °F 6.8 °F 79% 30.28 in 10.0 mi North 4.6 mph - N/A   Mostly Cloudy
3:17 AM 12.2 °F 4.3 °F 5.0 °F 73% 30.27 in 10.0 mi North 4.6 mph - N/A   Scattered Clouds
3:28 AM 12.2 °F 2.9 °F 6.8 °F 79% 30.27 in 10.0 mi North 5.8 mph - N/A   Mostly Cloudy
3:53 AM 12.0 °F 4.1 °F 6.1 °F 77% 30.34 in 10.0 mi North 4.6 mph - N/A   Overcast
4:53 AM 9.0 °F 2.4 °F 5.0 °F 84% 30.34 in 10.0 mi NNW 3.5 mph - N/A   Mostly Cloudy
5:17 AM 12.2 °F 6.1 °F 8.6 °F 85% 30.26 in 10.0 mi North 3.5 mph - N/A   Scattered Clouds
5:26 AM 8.6 °F 2.0 °F 6.8 °F 92% 30.26 in 10.0 mi North 3.5 mph - N/A   Mostly Cloudy
5:53 AM 10.0 °F 3.6 °F 6.1 °F 84% 30.34 in 10.0 mi North 3.5 mph - N/A   Overcast
6:53 AM 8.6 °F 2.0 °F 6.8 °F 92% 30.27 in 10.0 mi North 3.5 mph - N/A   Overcast
7:53 AM 12.9 °F 6.9 °F 9.0 °F 84% 30.35 in 5.0 mi North 3.5 mph - 0.00 in Snow Light Snow
8:53 AM 15.1 °F 6.4 °F 10.0 °F 80% 30.34 in 5.0 mi North 5.8 mph - 0.00 in Snow Light Snow
9:53 AM 16.0 °F 6.3 °F 10.0 °F 77% 30.34 in 4.0 mi NNE 6.9 mph - 0.00 in Snow Light Snow
10:53 AM 17.1 °F 6.6 °F 8.1 °F 68% 30.33 in 7.0 mi NE 8.1 mph - 0.00 in Snow Light Snow
11:53 AM 18.0 °F 7.7 °F 8.1 °F 65% 30.32 in 10.0 mi North 8.1 mph - 0.00 in   Mostly Cloudy
12:40 PM 19.4 °F 10.4 °F 8.6 °F 63% 30.24 in 10.0 mi NE 6.9 mph - N/A   Scattered Clouds
12:53 PM 19.0 °F 10.0 °F 9.0 °F 65% 30.31 in 10.0 mi NNE 6.9 mph - N/A   Partly Cloudy
1:53 PM 19.9 °F 14.9 °F 10.0 °F 65% 30.29 in 10.0 mi Variable 3.5 mph - N/A   Mostly Cloudy
2:01 PM 21.2 °F 11.7 °F 10.4 °F 63% 30.22 in 10.0 mi North 8.1 mph - N/A   Scattered Clouds
2:53 PM 19.9 °F 9.3 °F 10.0 °F 65% 30.29 in 10.0 mi NNW 9.2 mph - N/A   Scattered Clouds
3:53 PM 19.0 °F 10.0 °F 6.1 °F 57% 30.28 in 10.0 mi NNE 6.9 mph - N/A   Clear
4:53 PM 18.0 °F 6.1 °F 7.0 °F 62% 30.28 in 10.0 mi NNW 10.4 mph - N/A   Clear
5:53 PM 17.1 °F 5.8 °F 5.0 °F 59% 30.27 in 10.0 mi NNW 9.2 mph - N/A   Clear
6:53 PM 14.0 °F 8.2 °F 6.1 °F 71% 30.27 in 10.0 mi North 3.5 mph - N/A   Clear
7:53 PM 8.6 °F - 3.2 °F 79% 30.19 in 10.0 mi Calm Calm - N/A   Clear
8:53 PM 3.9 °F -5.3 °F 1.0 °F 88% 30.26 in 10.0 mi NW 4.6 mph - N/A   Clear
9:53 PM 3.0 °F -4.4 °F -2.0 °F 80% 30.25 in 10.0 mi North 3.5 mph - N/A   Clear
10:53 PM -0.9 °F -11.0 °F -5.1 °F 83% 30.25 in 10.0 mi North 4.6 mph - N/A   Clear
11:53 PM 6.1 °F -2.8 °F -0.0 °F 76% 30.22 in 10.0 mi North 4.6 mph - N/A   Clear